Time,TemperatureF,DewpointF,PressureIn,WindDirection,WindDirectionDegrees,WindSpeedMPH,WindSpeedGustMPH,Humidity,HourlyPrecipIn,Conditions,Clouds,dailyrainin,SoftwareType,DateUTC
2013-02-25 00:49:00,60.1,33.8,29.59,South,170,7.0,10.1,37,0.00,,,-99.99,FreeWX-Wi 1.01,2013-02-25 05:49:00,
2013-02-25 00:54:00,60.1,33.8,29.56,SSE,168,7.0,10.1,37,0.00,,,-99.99,FreeWX-Wi 1.01,2013-02-25 05:54:00,
2013-02-25 00:59:00,60.1,34.3,29.56,SSE,165,8.0,11.0,38,0.00,,,-99.99,FreeWX-Wi 1.01,2013-02-25 05:59:00,
2013-02-25 01:04:00,59.9,34.2,29.56,SSE,164,8.0,11.0,38,0.00,,,-99.99,FreeWX-Wi 1.01,2013-02-25 06:04:00,
2013-02-25 01:09:00,59.9,34.2,29.56,SSE,163,8.0,11.4,38,0.00,,,-99.99,FreeWX-Wi 1.01,2013-02-25 06:09:00,
2013-02-25 01:14:00,59.9,34.2,29.56,SSE,162,8.0,11.0,38,0.00,,,-99.99,FreeWX-Wi 1.01,2013-02-25 06:14:00,
2013-02-25 01:19:00,59.9,34.2,29.56,SSE,164,8.0,10.1,38,0.00,,,-99.99,FreeWX-Wi 1.01,2013-02-25 06:19:00,
2013-02-25 01:24:00,59.7,34.2,29.56,SSE,164,8.0,8.3,38,0.00,,,-99.99,FreeWX-Wi 1.01,2013-02-25 06:24:00,
2013-02-25 01:29:00,59.7,34.7,29.56,SSE,166,7.0,8.3,39,0.00,,,-99.99,FreeWX-Wi 1.01,2013-02-25 06:29:00,
2013-02-25 01:34:00,59.4,34.3,29.56,South,171,7.0,8.3,39,0.00,,,-99.99,FreeWX-Wi 1.01,2013-02-25 06:34:00,
2013-02-25 01:39:00,58.5,31.6,29.59,South,178,7.0,17.4,36,0.00,,,-99.99,FreeWX-Wi 1.01,2013-02-25 06:39:00,
2013-02-25 01:44:00,56.7,28.6,29.59,South,191,7.0,17.4,34,0.00,,,-99.99,FreeWX-Wi 1.01,2013-02-25 06:44:00,
2013-02-25 01:49:00,54.7,27.5,29.59,SSW,209,7.0,13.2,35,0.00,,,-99.99,FreeWX-Wi 1.01,2013-02-25 06:49:00,
2013-02-25 01:54:00,53.2,27.0,29.59,SW,232,7.0,15.4,36,0.00,,,-99.99,FreeWX-Wi 1.01,2013-02-25 06:54:00,
2013-02-25 01:59:00,52.0,25.9,29.59,WSW,250,7.0,13.2,36,0.00,,,-99.99,FreeWX-Wi 1.01,2013-02-25 06:59:00,
2013-02-25 02:04:00,51.1,25.0,29.59,West,267,8.0,15.0,36,0.00,,,-99.99,FreeWX-Wi 1.01,2013-02-25 07:04:00,
2013-02-25 02:09:00,50.2,24.3,29.62,West,276,8.0,13.2,36,0.00,,,-99.99,FreeWX-Wi 1.01,2013-02-25 07:09:00,
2013-02-25 02:14:00,49.3,24.1,29.62,West,281,8.0,13.2,37,0.00,,,-99.99,FreeWX-Wi 1.01,2013-02-25 07:14:00,
2013-02-25 02:19:00,48.9,23.7,29.62,WNW,282,8.0,14.5,37,0.00,,,-99.99,FreeWX-Wi 1.01,2013-02-25 07:19:00,
2013-02-25 02:24:00,48.6,23.5,29.62,WNW,282,8.0,12.3,37,0.00,,,-99.99,FreeWX-Wi 1.01,2013-02-25 07:24:00,
2013-02-25 02:29:00,48.4,23.4,29.62,WNW,283,8.0,15.4,37,0.00,,,-99.99,FreeWX-Wi 1.01,2013-02-25 07:29:00,
2013-02-25 02:34:00,47.8,23.5,29.62,WNW,285,9.0,15.4,38,0.00,,,-99.99,FreeWX-Wi 1.01,2013-02-25 07:34:00,
2013-02-25 02:39:00,47.5,23.2,29.62,WNW,287,9.0,17.9,38,0.00,,,-99.99,FreeWX-Wi 1.01,2013-02-25 07:39:00,
2013-02-25 02:44:00,47.3,23.5,29.62,WNW,290,10.0,15.4,39,0.00,,,-99.99,FreeWX-Wi 1.01,2013-02-25 07:44:00,
2013-02-25 02:49:00,47.1,23.4,29.62,WNW,292,10.0,16.8,39,0.00,,,-99.99,FreeWX-Wi 1.01,2013-02-25 07:49:00,
2013-02-25 02:54:00,46.6,23.0,29.65,WNW,293,10.0,17.0,39,0.00,,,-99.99,FreeWX-Wi 1.01,2013-02-25 07:54:00,
2013-02-25 02:59:00,46.4,22.8,29.65,WNW,294,11.0,17.4,39,0.00,,,-99.99,FreeWX-Wi 1.01,2013-02-25 07:59:00,
2013-02-25 03:04:00,46.0,23.0,29.65,WNW,294,11.0,17.4,40,0.00,,,-99.99,FreeWX-Wi 1.01,2013-02-25 08:04:00,
2013-02-25 03:09:00,45.9,23.5,29.65,WNW,296,11.0,17.9,41,0.00,,,-99.99,FreeWX-Wi 1.01,2013-02-25 08:09:00,
2013-02-25 03:14:00,45.5,22.6,29.65,WNW,298,11.0,17.9,40,0.00,,,-99.99,FreeWX-Wi 1.01,2013-02-25 08:14:00,
2013-02-25 03:19:00,45.0,22.1,29.65,WNW,300,11.0,14.1,40,0.00,,,-99.99,FreeWX-Wi 1.01,2013-02-25 08:19:00,
2013-02-25 03:24:00,44.6,22.5,29.65,WNW,302,11.0,16.8,41,0.00,,,-99.99,FreeWX-Wi 1.01,2013-02-25 08:24:00,
2013-02-25 03:29:00,44.2,22.6,29.65,NW,304,11.0,18.8,42,0.00,,,-99.99,FreeWX-Wi 1.01,2013-02-25 08:29:00,
2013-02-25 03:34:00,44.2,22.6,29.65,NW,306,11.0,18.3,42,0.00,,,-99.99,FreeWX-Wi 1.01,2013-02-25 08:34:00,
2013-02-25 03:39:00,44.1,22.5,29.65,NW,304,10.0,15.4,42,0.00,,,-99.99,FreeWX-Wi 1.01,2013-02-25 08:39:00,
2013-02-25 03:44:00,44.1,22.5,29.65,WNW,302,9.0,10.1,42,0.00,,,-99.99,FreeWX-Wi 1.01,2013-02-25 08:44:00,
2013-02-25 03:49:00,44.2,22.6,29.65,NW,304,9.0,9.0,42,0.00,,,-99.99,FreeWX-Wi 1.01,2013-02-25 08:49:00,
2013-02-25 03:54:00,44.2,22.6,29.65,NW,304,8.0,12.3,42,0.00,,,-99.99,FreeWX-Wi 1.01,2013-02-25 08:54:00,
2013-02-25 03:59:00,44.1,22.5,29.65,NW,306,8.0,13.2,42,0.00,,,-99.99,FreeWX-Wi 1.01,2013-02-25 08:59:00,
2013-02-25 04:04:00,43.9,21.7,29.65,NW,309,8.0,14.1,41,0.00,,,-99.99,FreeWX-Wi 1.01,2013-02-25 09:04:00,
2013-02-25 04:09:00,43.7,22.1,29.65,NW,315,8.0,13.6,42,0.00,,,-99.99,FreeWX-Wi 1.01,2013-02-25 09:09:00,
2013-02-25 04:14:00,43.5,21.9,29.65,NW,318,8.0,11.0,42,0.00,,,-99.99,FreeWX-Wi 1.01,2013-02-25 09:14:00,
2013-02-25 04:19:00,43.5,21.9,29.65,NW,318,8.0,10.1,42,0.00,,,-99.99,FreeWX-Wi 1.01,2013-02-25 09:19:00,
2013-02-25 04:24:00,43.5,21.9,29.65,NW,319,8.0,10.1,42,0.00,,,-99.99,FreeWX-Wi 1.01,2013-02-25 09:24:00,
2013-02-25 04:29:00,43.3,21.2,29.65,NW,315,7.0,8.7,41,0.00,,,-99.99,FreeWX-Wi 1.01,2013-02-25 09:29:00,
2013-02-25 04:34:00,43.2,21.6,29.65,NW,309,7.0,11.0,42,0.00,,,-99.99,FreeWX-Wi 1.01,2013-02-25 09:34:00,
2013-02-25 04:39:00,43.0,21.6,29.65,NW,304,6.0,9.6,42,0.00,,,-99.99,FreeWX-Wi 1.01,2013-02-25 09:39:00,
2013-02-25 04:44:00,42.8,21.4,29.65,WNW,300,6.0,11.0,42,0.00,,,-99.99,FreeWX-Wi 1.01,2013-02-25 09:44:00,
2013-02-25 04:49:00,42.6,21.2,29.65,WNW,297,6.0,9.6,42,0.00,,,-99.99,FreeWX-Wi 1.01,2013-02-25 09:49:00,
2013-02-25 04:54:00,42.4,21.6,29.65,WNW,295,6.0,9.6,43,0.00,,,-99.99,FreeWX-Wi 1.01,2013-02-25 09:54:00,
2013-02-25 04:59:00,42.4,21.6,29.65,WNW,293,6.0,7.6,43,0.00,,,-99.99,FreeWX-Wi 1.01,2013-02-25 09:59:00,
2013-02-25 05:04:00,42.3,21.4,29.65,WNW,295,6.0,11.9,43,0.00,,,-99.99,FreeWX-Wi 1.01,2013-02-25 10:04:00,
2013-02-25 05:09:00,42.3,21.4,29.65,WNW,296,6.0,11.0,43,0.00,,,-99.99,FreeWX-Wi 1.01,2013-02-25 10:09:00,
2013-02-25 05:14:00,42.3,21.9,29.65,WNW,299,6.0,12.3,44,0.00,,,-99.99,FreeWX-Wi 1.01,2013-02-25 10:14:00,
2013-02-25 05:19:00,42.3,21.9,29.65,WNW,300,7.0,12.8,44,0.00,,,-99.99,FreeWX-Wi 1.01,2013-02-25 10:19:00,
2013-02-25 05:24:00,42.1,21.7,29.65,WNW,301,7.0,12.8,44,0.00,,,-99.99,FreeWX-Wi 1.01,2013-02-25 10:24:00,
2013-02-25 05:29:00,42.1,21.7,29.65,WNW,303,7.0,12.8,44,0.00,,,-99.99,FreeWX-Wi 1.01,2013-02-25 10:29:00,
2013-02-25 05:34:00,42.1,21.7,29.65,WNW,303,7.0,13.2,44,0.00,,,-99.99,FreeWX-Wi 1.01,2013-02-25 10:34:00,
2013-02-25 05:39:00,42.1,21.7,29.65,WNW,302,7.0,11.0,44,0.00,,,-99.99,FreeWX-Wi 1.01,2013-02-25 10:39:00,
2013-02-25 05:44:00,41.7,21.4,29.65,WNW,300,7.0,8.7,44,0.00,,,-99.99,FreeWX-Wi 1.01,2013-02-25 10:44:00,
2013-02-25 05:49:00,41.5,21.2,29.65,WNW,299,7.0,8.7,44,0.00,,,-99.99,FreeWX-Wi 1.01,2013-02-25 10:49:00,
2013-02-25 05:54:00,41.5,21.2,29.65,WNW,298,6.0,6.7,44,0.00,,,-99.99,FreeWX-Wi 1.01,2013-02-25 10:54:00,
2013-02-25 05:59:00,41.4,21.0,29.65,WNW,294,6.0,6.3,44,0.00,,,-99.99,FreeWX-Wi 1.01,2013-02-25 10:59:00,
2013-02-25 06:04:00,41.2,21.4,29.65,WNW,292,5.0,9.6,45,0.00,,,-99.99,FreeWX-Wi 1.01,2013-02-25 11:04:00,
2013-02-25 06:09:00,41.2,21.4,29.65,WNW,288,4.0,8.3,45,0.00,,,-99.99,FreeWX-Wi 1.01,2013-02-25 11:09:00,
2013-02-25 06:14:00,41.2,21.9,29.65,WNW,287,4.0,8.1,46,0.00,,,-99.99,FreeWX-Wi 1.01,2013-02-25 11:14:00,
2013-02-25 06:20:00,41.2,21.9,29.65,WNW,286,4.0,6.3,46,0.00,,,-99.99,FreeWX-Wi 1.01,2013-02-25 11:20:00,
2013-02-25 06:25:00,41.2,21.9,29.65,WNW,285,4.0,5.8,46,0.00,,,-99.99,FreeWX-Wi 1.01,2013-02-25 11:25:00,
2013-02-25 06:30:00,41.2,21.9,29.65,WNW,282,4.0,7.6,46,0.00,,,-99.99,FreeWX-Wi 1.01,2013-02-25 11:30:00,
2013-02-25 06:35:00,41.4,22.1,29.65,West,280,4.0,5.8,46,0.00,,,-99.99,FreeWX-Wi 1.01,2013-02-25 11:35:00,
2013-02-25 06:40:00,41.2,21.9,29.65,West,277,4.0,6.3,46,0.00,,,-99.99,FreeWX-Wi 1.01,2013-02-25 11:40:00,
2013-02-25 06:45:00,41.2,21.9,29.65,West,274,4.0,6.3,46,0.00,,,-99.99,FreeWX-Wi 1.01,2013-02-25 11:45:00,
2013-02-25 06:50:00,41.0,21.7,29.65,West,272,4.0,8.7,46,0.00,,,-99.99,FreeWX-Wi 1.01,2013-02-25 11:50:00,
2013-02-25 06:55:00,41.0,21.7,29.65,West,271,4.0,8.7,46,0.00,,,-99.99,FreeWX-Wi 1.01,2013-02-25 11:55:00,
2013-02-25 07:00:00,40.6,21.6,29.65,West,270,4.0,7.6,46,0.00,,,-99.99,FreeWX-Wi 1.01,2013-02-25 12:00:00,
2013-02-25 07:05:00,40.5,21.4,29.65,West,269,5.0,8.3,46,0.00,,,-99.99,FreeWX-Wi 1.01,2013-02-25 12:05:00,
2013-02-25 07:10:00,40.5,21.4,29.65,West,269,5.0,6.3,46,0.00,,,-99.99,FreeWX-Wi 1.01,2013-02-25 12:10:00,
2013-02-25 07:15:00,40.5,21.4,29.65,West,269,5.0,5.8,46,0.00,,,-99.99,FreeWX-Wi 1.01,2013-02-25 12:15:00,
2013-02-25 07:20:00,40.3,21.2,29.65,West,268,5.0,8.1,46,0.00,,,-99.99,FreeWX-Wi 1.01,2013-02-25 12:20:00,
2013-02-25 07:25:00,40.3,21.2,29.65,West,265,5.0,6.3,46,0.00,,,-99.99,FreeWX-Wi 1.01,2013-02-25 12:25:00,
2013-02-25 07:30:00,40.1,21.0,29.65,West,263,4.0,6.3,46,0.00,,,-99.99,FreeWX-Wi 1.01,2013-02-25 12:30:00,
2013-02-25 07:35:00,39.9,20.8,29.65,West,261,4.0,4.9,46,0.00,,,-99.99,FreeWX-Wi 1.01,2013-02-25 12:35:00,
2013-02-25 07:40:00,39.9,20.8,29.65,West,260,4.0,5.4,46,0.00,,,-99.99,FreeWX-Wi 1.01,2013-02-25 12:40:00,
2013-02-25 07:45:00,39.7,20.1,29.65,WSW,258,4.0,8.3,45,0.00,,,-99.99,FreeWX-Wi 1.01,2013-02-25 12:45:00,
2013-02-25 07:50:00,39.6,19.9,29.65,WSW,256,4.0,5.4,45,0.00,,,-99.99,FreeWX-Wi 1.01,2013-02-25 12:50:00,
2013-02-25 07:55:00,39.4,19.8,29.65,WSW,255,4.0,5.8,45,0.00,,,-99.99,FreeWX-Wi 1.01,2013-02-25 12:55:00,
2013-02-25 08:00:00,39.2,19.6,29.65,WSW,255,4.0,6.3,45,0.00,,,-99.99,FreeWX-Wi 1.01,2013-02-25 13:00:00,
2013-02-25 08:05:00,38.8,19.4,29.65,WSW,253,4.0,8.1,45,0.00,,,-99.99,FreeWX-Wi 1.01,2013-02-25 13:05:00,
2013-02-25 08:10:00,38.8,19.8,29.65,WSW,252,4.0,7.2,46,0.00,,,-99.99,FreeWX-Wi 1.01,2013-02-25 13:10:00,
2013-02-25 08:15:00,38.7,19.8,29.65,WSW,253,4.0,6.3,46,0.00,,,-99.99,FreeWX-Wi 1.01,2013-02-25 13:15:00,
2013-02-25 08:20:00,38.5,19.6,29.65,WSW,253,5.0,8.3,46,0.00,,,-99.99,FreeWX-Wi 1.01,2013-02-25 13:20:00,
2013-02-25 08:25:00,38.3,19.4,29.65,WSW,254,5.0,7.2,46,0.00,,,-99.99,FreeWX-Wi 1.01,2013-02-25 13:25:00,
2013-02-25 08:30:00,38.1,19.2,29.65,WSW,252,5.0,7.6,46,0.00,,,-99.99,FreeWX-Wi 1.01,2013-02-25 13:30:00,
2013-02-25 08:35:00,38.1,19.2,29.65,WSW,252,5.0,8.1,46,0.00,,,-99.99,FreeWX-Wi 1.01,2013-02-25 13:35:00,
2013-02-25 08:40:00,38.1,19.2,29.65,WSW,255,5.0,8.3,46,0.00,,,-99.99,FreeWX-Wi 1.01,2013-02-25 13:40:00,
2013-02-25 08:45:00,38.3,19.9,29.65,WSW,257,5.0,10.1,47,0.00,,,-99.99,FreeWX-Wi 1.01,2013-02-25 13:45:00,
2013-02-25 08:50:00,38.5,19.9,29.65,WSW,258,6.0,14.5,47,0.00,,,-99.99,FreeWX-Wi 1.01,2013-02-25 13:50:00,
2013-02-25 08:55:00,38.8,20.8,29.65,West,259,6.0,12.3,48,0.00,,,-99.99,FreeWX-Wi 1.01,2013-02-25 13:55:00,
2013-02-25 09:00:00,39.4,21.4,29.65,West,263,7.0,12.3,48,0.00,,,-99.99,FreeWX-Wi 1.01,2013-02-25 14:00:00,
2013-02-25 09:05:00,40.1,21.9,29.65,West,267,7.0,11.0,48,0.00,,,-99.99,FreeWX-Wi 1.01,2013-02-25 14:05:00,
2013-02-25 09:10:00,41.0,21.4,29.65,West,269,7.0,12.3,45,0.00,,,-99.99,FreeWX-Wi 1.01,2013-02-25 14:10:00,
2013-02-25 09:15:00,41.7,20.3,29.65,West,270,8.0,15.0,42,0.00,,,-99.99,FreeWX-Wi 1.01,2013-02-25 14:15:00,
2013-02-25 09:20:00,42.6,20.7,29.65,West,270,8.0,12.3,41,0.00,,,-99.99,FreeWX-Wi 1.01,2013-02-25 14:20:00,
2013-02-25 09:25:00,43.3,21.2,29.65,West,270,8.0,15.0,41,0.00,,,-99.99,FreeWX-Wi 1.01,2013-02-25 14:25:00,
2013-02-25 09:30:00,44.2,21.4,29.65,West,271,8.0,11.0,40,0.00,,,-99.99,FreeWX-Wi 1.01,2013-02-25 14:30:00,
2013-02-25 09:35:00,44.8,20.7,29.65,West,270,9.0,17.4,38,0.00,,,-99.99,FreeWX-Wi 1.01,2013-02-25 14:35:00,
2013-02-25 09:40:00,45.1,21.0,29.65,West,270,9.0,15.9,38,0.00,,,-99.99,FreeWX-Wi 1.01,2013-02-25 14:40:00,
2013-02-25 09:45:00,45.5,20.8,29.65,West,270,10.0,19.2,37,0.00,,,-99.99,FreeWX-Wi 1.01,2013-02-25 14:45:00,
2013-02-25 09:50:00,45.5,19.4,29.65,West,269,10.0,17.4,35,0.00,,,-99.99,FreeWX-Wi 1.01,2013-02-25 14:50:00,
2013-02-25 09:55:00,45.7,19.6,29.65,West,269,10.0,15.4,35,0.00,,,-99.99,FreeWX-Wi 1.01,2013-02-25 14:55:00,
2013-02-25 10:00:00,45.9,17.8,29.65,West,269,10.0,15.4,32,0.00,,,-99.99,FreeWX-Wi 1.01,2013-02-25 15:00:00,
2013-02-25 10:05:00,45.7,17.6,29.65,West,270,10.0,14.5,32,0.00,,,-99.99,FreeWX-Wi 1.01,2013-02-25 15:05:00,
2013-02-25 10:10:00,45.5,17.4,29.68,West,270,11.0,16.3,32,0.00,,,-99.99,FreeWX-Wi 1.01,2013-02-25 15:10:00,
2013-02-25 10:15:00,45.7,17.6,29.68,West,272,11.0,13.6,32,0.00,,,-99.99,FreeWX-Wi 1.01,2013-02-25 15:15:00,
2013-02-25 10:20:00,45.3,16.5,29.68,West,272,11.0,14.5,31,0.00,,,-99.99,FreeWX-Wi 1.01,2013-02-25 15:20:00,
2013-02-25 10:25:00,44.6,15.8,29.68,West,272,11.0,11.0,31,0.00,,,-99.99,FreeWX-Wi 1.01,2013-02-25 15:25:00,
2013-02-25 10:30:00,44.1,16.2,29.68,West,272,11.0,0.0,32,0.00,,,-99.99,FreeWX-Wi 1.01,2013-02-25 15:30:00,
2013-02-25 10:35:00,44.1,15.4,29.68,West,273,11.0,12.3,31,0.00,,,-99.99,FreeWX-Wi 1.01,2013-02-25 15:35:00,
2013-02-25 10:40:00,44.1,15.4,29.68,West,274,11.0,13.2,31,0.00,,,-99.99,FreeWX-Wi 1.01,2013-02-25 15:40:00,
2013-02-25 10:45:00,43.7,15.1,29.68,West,275,11.0,13.2,31,0.00,,,-99.99,FreeWX-Wi 1.01,2013-02-25 15:45:00,
2013-02-25 10:50:00,43.3,14.7,29.68,West,275,11.0,23.7,31,0.00,,,-99.99,FreeWX-Wi 1.01,2013-02-25 15:50:00,
2013-02-25 10:55:00,42.6,14.9,29.68,West,275,12.0,16.8,32,0.00,,,-99.99,FreeWX-Wi 1.01,2013-02-25 15:55:00,
2013-02-25 11:00:00,42.1,14.4,29.68,West,276,12.0,16.3,32,0.00,,,-99.99,FreeWX-Wi 1.01,2013-02-25 16:00:00,
2013-02-25 11:05:00,41.9,14.2,29.68,West,277,12.0,16.3,32,0.00,,,-99.99,FreeWX-Wi 1.01,2013-02-25 16:05:00,
2013-02-25 11:10:00,41.7,13.3,29.68,West,277,11.0,15.0,31,0.00,,,-99.99,FreeWX-Wi 1.01,2013-02-25 16:10:00,
2013-02-25 11:15:00,41.5,13.8,29.68,West,276,11.0,17.4,32,0.00,,,-99.99,FreeWX-Wi 1.01,2013-02-25 16:15:00,
2013-02-25 11:20:00,41.7,13.3,29.68,West,277,11.0,19.7,31,0.00,,,-99.99,FreeWX-Wi 1.01,2013-02-25 16:20:00,
2013-02-25 11:25:00,41.5,13.1,29.68,West,277,11.0,16.3,31,0.00,,,-99.99,FreeWX-Wi 1.01,2013-02-25 16:25:00,
2013-02-25 11:30:00,41.7,13.3,29.68,West,278,11.0,16.8,31,0.00,,,-99.99,FreeWX-Wi 1.01,2013-02-25 16:30:00,
2013-02-25 11:35:00,41.7,13.3,29.68,West,278,11.0,12.8,31,0.00,,,-99.99,FreeWX-Wi 1.01,2013-02-25 16:35:00,
2013-02-25 11:40:00,41.7,13.3,29.68,West,278,11.0,11.0,31,0.00,,,-99.99,FreeWX-Wi 1.01,2013-02-25 16:40:00,
2013-02-25 11:45:00,42.3,13.8,29.68,West,279,11.0,19.2,31,0.00,,,-99.99,FreeWX-Wi 1.01,2013-02-25 16:45:00,
2013-02-25 11:50:00,42.3,13.8,29.68,West,278,11.0,18.3,31,0.00,,,-99.99,FreeWX-Wi 1.01,2013-02-25 16:50:00,
2013-02-25 11:56:00,42.1,13.6,29.68,West,278,11.0,18.3,31,0.00,,,-99.99,FreeWX-Wi 1.01,2013-02-25 16:56:00,
2013-02-25 12:01:00,41.5,13.1,29.68,West,277,11.0,19.7,31,0.00,,,-99.99,FreeWX-Wi 1.01,2013-02-25 17:01:00,
2013-02-25 13:14:00,40.1,12.6,29.68,WNW,301,15.0,23.7,32,0.00,,,-99.99,FreeWX-Wi 1.01,2013-02-25 18:14:00,
2013-02-25 13:20:00,39.9,12.6,29.68,NW,305,15.0,29.3,32,0.00,,,-99.99,FreeWX-Wi 1.01,2013-02-25 18:20:00,
2013-02-25 13:25:00,39.9,12.6,29.68,WNW,301,15.0,20.6,32,0.00,,,-99.99,FreeWX-Wi 1.01,2013-02-25 18:25:00,
2013-02-25 13:30:00,39.9,12.6,29.68,WNW,301,15.0,22.8,32,0.00,,,-99.99,FreeWX-Wi 1.01,2013-02-25 18:30:00,
2013-02-25 13:35:00,40.1,12.6,29.68,WNW,300,15.0,20.1,32,0.00,,,-99.99,FreeWX-Wi 1.01,2013-02-25 18:35:00,
2013-02-25 13:40:00,40.1,11.8,29.68,WNW,298,15.0,25.5,31,0.00,,,-99.99,FreeWX-Wi 1.01,2013-02-25 18:40:00,
2013-02-25 13:45:00,40.1,12.6,29.68,WNW,298,15.0,20.6,32,0.00,,,-99.99,FreeWX-Wi 1.01,2013-02-25 18:45:00,
2013-02-25 13:50:00,40.3,12.0,29.68,WNW,298,15.0,23.7,31,0.00,,,-99.99,FreeWX-Wi 1.01,2013-02-25 18:50:00,
2013-02-25 13:55:00,40.1,11.8,29.68,WNW,299,15.0,21.9,31,0.00,,,-99.99,FreeWX-Wi 1.01,2013-02-25 18:55:00,
2013-02-25 14:00:00,39.9,11.8,29.68,WNW,301,16.0,29.8,31,0.00,,,-99.99,FreeWX-Wi 1.01,2013-02-25 19:00:00,
2013-02-25 14:05:00,39.7,11.7,29.68,WNW,301,16.0,22.4,31,0.00,,,-99.99,FreeWX-Wi 1.01,2013-02-25 19:05:00,
2013-02-25 14:10:00,39.7,11.7,29.68,WNW,301,15.0,23.7,31,0.00,,,-99.99,FreeWX-Wi 1.01,2013-02-25 19:10:00,
2013-02-25 14:15:00,39.7,11.7,29.68,WNW,301,15.0,21.5,31,0.00,,,-99.99,FreeWX-Wi 1.01,2013-02-25 19:15:00,
2013-02-25 14:20:00,39.7,11.7,29.68,WNW,302,16.0,29.3,31,0.00,,,-99.99,FreeWX-Wi 1.01,2013-02-25 19:20:00,
2013-02-25 14:25:00,39.6,11.5,29.68,WNW,303,16.0,24.6,31,0.00,,,-99.99,FreeWX-Wi 1.01,2013-02-25 19:25:00,
2013-02-25 14:30:00,39.7,12.4,29.68,NW,305,16.0,25.5,32,0.00,,,-99.99,FreeWX-Wi 1.01,2013-02-25 19:30:00,
2013-02-25 14:35:00,39.9,12.6,29.68,NW,307,16.0,30.2,32,0.00,,,-99.99,FreeWX-Wi 1.01,2013-02-25 19:35:00,
2013-02-25 14:40:00,40.5,12.9,29.68,NW,307,17.0,28.9,32,0.00,,,-99.99,FreeWX-Wi 1.01,2013-02-25 19:40:00,
2013-02-25 14:45:00,40.8,13.3,29.68,NW,308,16.0,24.6,32,0.00,,,-99.99,FreeWX-Wi 1.01,2013-02-25 19:45:00,
2013-02-25 14:50:00,41.0,12.7,29.68,NW,308,17.0,23.7,31,0.00,,,-99.99,FreeWX-Wi 1.01,2013-02-25 19:50:00,
2013-02-25 14:55:00,40.8,13.3,29.68,NW,308,17.0,26.2,32,0.00,,,-99.99,FreeWX-Wi 1.01,2013-02-25 19:55:00,
2013-02-25 15:00:00,41.0,13.5,29.68,NW,309,17.0,25.1,32,0.00,,,-99.99,FreeWX-Wi 1.01,2013-02-25 20:00:00,
2013-02-25 15:05:00,41.2,13.6,29.68,NW,307,16.0,17.9,32,0.00,,,-99.99,FreeWX-Wi 1.01,2013-02-25 20:05:00,
2013-02-25 15:10:00,40.8,13.3,29.68,NW,306,16.0,25.7,32,0.00,,,-99.99,FreeWX-Wi 1.01,2013-02-25 20:10:00,
2013-02-25 15:15:00,40.6,13.1,29.68,NW,306,17.0,28.0,32,0.00,,,-99.99,FreeWX-Wi 1.01,2013-02-25 20:15:00,